TimeMDT,TemperatureF,Dew PointF,Humidity,Sea Level PressureIn,VisibilityMPH,Wind Direction,Wind SpeedMPH,Gust SpeedMPH,PrecipitationIn,Events,Conditions,WindDirDegrees,DateUTC
12:53 AM,64.0,57.9,80,29.98,10.0,South,5.8,-,0.01,Rain,Light Rain,170,2013-09-03 06:53:00
1:53 AM,64.0,57.9,80,29.97,10.0,North,4.6,-,0.00,,Partly Cloudy,360,2013-09-03 07:53:00
2:53 AM,61.0,59.0,93,29.96,10.0,WNW,5.8,-,N/A,,Clear,300,2013-09-03 08:53:00
3:53 AM,60.1,57.9,93,29.97,10.0,Calm,Calm,-,N/A,,Clear,0,2013-09-03 09:53:00
4:53 AM,57.9,57.9,100,29.99,10.0,Calm,Calm,-,N/A,,Clear,0,2013-09-03 10:53:00
5:53 AM,57.0,57.0,100,30.01,10.0,SW,4.6,-,N/A,,Scattered Clouds,230,2013-09-03 11:53:00
6:53 AM,57.0,57.0,100,30.01,10.0,Calm,Calm,-,0.00,Rain,Light Rain,0,2013-09-03 12:53:00
7:53 AM,59.0,57.9,96,30.04,10.0,Calm,Calm,-,N/A,,Partly Cloudy,0,2013-09-03 13:53:00
8:53 AM,63.0,60.1,90,30.04,10.0,Calm,Calm,-,N/A,,Clear,0,2013-09-03 14:53:00
9:53 AM,66.9,62.1,84,30.04,10.0,Calm,Calm,-,N/A,,Clear,0,2013-09-03 15:53:00
10:53 AM,71.1,59.0,66,30.02,10.0,East,4.6,-,N/A,,Clear,90,2013-09-03 16:53:00
11:53 AM,73.0,59.0,61,30.03,10.0,East,3.5,-,N/A,,Partly Cloudy,80,2013-09-03 17:53:00
12:53 PM,79.0,59.0,50,30.00,10.0,NNE,4.6,-,N/A,,Clear,30,2013-09-03 18:53:00
1:53 PM,78.1,57.0,48,29.98,10.0,NE,3.5,-,0.00,,Mostly Cloudy,40,2013-09-03 19:53:00
2:53 PM,77.0,57.9,52,29.98,10.0,Calm,Calm,-,N/A,,Clear,0,2013-09-03 20:53:00
3:53 PM,69.1,62.1,78,30.02,10.0,SW,17.3,27.6,0.00,Rain,Light Rain,230,2013-09-03 21:53:00
4:02 PM,68.0,62.6,83,30.11,10.0,WSW,12.7,21.9,0.00,Rain-Thunderstorm,Light Rain,240,2013-09-03 22:02:00
4:53 PM,66.0,63.0,90,30.06,9.0,WSW,12.7,21.9,0.02,Rain-Thunderstorm,Light Rain,250,2013-09-03 22:53:00
5:38 PM,64.4,62.6,94,30.16,10.0,SSW,10.4,-,0.01,Rain,Light Rain,210,2013-09-03 23:38:00
5:53 PM,64.9,62.1,90,30.06,10.0,SW,5.8,-,0.01,,Overcast,220,2013-09-03 23:53:00
6:53 PM,66.0,63.0,90,30.02,10.0,South,5.8,-,0.01,,Clear,170,2013-09-04 00:53:00
7:53 PM,66.0,63.0,90,29.99,10.0,SE,5.8,-,N/A,,Scattered Clouds,130,2013-09-04 01:53:00
8:26 PM,66.2,62.6,88,30.09,4.0,Calm,Calm,-,N/A,,Clear,0,2013-09-04 02:26:00
8:40 PM,64.4,62.6,94,30.10,9.0,WSW,3.5,-,N/A,,Scattered Clouds,240,2013-09-04 02:40:00
8:53 PM,64.9,62.1,90,30.01,10.0,Calm,Calm,-,N/A,,Partly Cloudy,0,2013-09-04 02:53:00
9:53 PM,64.0,61.0,90,30.01,10.0,North,4.6,-,N/A,,Scattered Clouds,360,2013-09-04 03:53:00
10:53 PM,63.0,61.0,93,30.02,10.0,ENE,3.5,-,N/A,,Clear,60,2013-09-04 04:53:00
11:53 PM,61.0,60.1,97,30.02,10.0,Calm,Calm,-,N/A,,Clear,0,2013-09-04 05:53:00